New Orleans, LA

11:24 PM CDT on May 22, 2017 (GMT -0500)
New Orleans International

Weather History for KMSY - September, 2013

Change the Weather History Date:

Wednesday, September 25, 2013

  Actual Average Record
Temperature  
Mean Temperature 82 °F -  
Max Temperature 90 °F 85 °F 93 °F (1980)
Min Temperature 73 °F 67 °F 56 °F (1967)
Cooling Degree Days 16    
Growing Degree Days 32 (Base 50)    
Moisture  
Dew Point 70 °F    
Average Humidity 71    
Maximum Humidity 93    
Minimum Humidity 41    
Precipitation  
Precipitation 0.00 in - - ()
Sea Level Pressure  
Sea Level Pressure 29.82 in    
Wind  
Wind Speed 4 mph (NNW)    
Max Wind Speed 9 mph    
Max Gust Speed -    
Visibility 10 miles    
Events      
Averages and records for this station are not official NWS values.
T = Trace of Precipitation, MM = Missing Value Source: NWS Daily Summary

Daily Weather History Graph

Daily Weather History Graph

Search for Another Location

Airport or City:

Trip Planner

Search our weather history database for the weather conditions in past years. The results will help you decide how hot, cold, wet, or windy it might be!

Date:

Astronomy

Sep. 25, 2013 Rise Set
Actual Time 6:51 AM CDT 6:53 PM CDT
Civil Twilight 6:27 AM CDT 7:17 PM CDT
Nautical Twilight 5:59 AM CDT 7:45 PM CDT
Astronomical Twilight 5:31 AM CDT 8:13 PM CDT
Moon 11:22 PM CDT (9/25) 12:34 PM CDT (9/25)
Length of Visible Light 12h 50m
Length of Day
12h 02m
Waning Gibbous, 64% of the Moon is Illuminated
Sep 25
Waning Gibbous
Sep 26
Last Quarter
Oct 4
New
Oct 11
First Quarter
Oct 18
Full

Hourly Weather History & Observations

Time (CDT) Temp. Heat Index Dew Point Humidity Pressure Visibility Wind Dir Wind Speed Gust Speed Precip Events Conditions
12:27 AM 77.0 °F - 73.4 °F 89% 29.80 in 10.0 mi North 3.5 mph - N/A   Scattered Clouds
12:53 AM 77.0 °F - 73.0 °F 88% 29.81 in 10.0 mi NNW 5.8 mph - N/A   Scattered Clouds
1:53 AM 75.9 °F - 72.0 °F 87% 29.81 in 10.0 mi North 3.5 mph - N/A   Scattered Clouds
2:53 AM 75.9 °F - 72.0 °F 87% 29.80 in 10.0 mi Calm Calm - N/A   Partly Cloudy
3:53 AM 73.9 °F - 72.0 °F 93% 29.80 in 10.0 mi Calm Calm - N/A   Scattered Clouds
4:53 AM 75.0 °F - 72.0 °F 90% 29.81 in 10.0 mi North 3.5 mph - N/A   Scattered Clouds
5:53 AM 75.0 °F - 72.0 °F 90% 29.81 in 10.0 mi Calm Calm - N/A   Scattered Clouds
6:53 AM 73.9 °F - 72.0 °F 93% 29.83 in 10.0 mi NNW 3.5 mph - N/A   Scattered Clouds
7:53 AM 77.0 °F - 73.9 °F 90% 29.84 in 10.0 mi North 3.5 mph - N/A   Scattered Clouds
8:53 AM 80.1 °F 84.5 °F 73.9 °F 81% 29.84 in 10.0 mi North 6.9 mph - N/A   Scattered Clouds
9:53 AM 82.0 °F 87.9 °F 73.9 °F 76% 29.86 in 10.0 mi North 6.9 mph - N/A   Scattered Clouds
10:53 AM 82.9 °F 88.0 °F 72.0 °F 69% 29.86 in 10.0 mi North 9.2 mph - N/A   Scattered Clouds
11:53 AM 84.0 °F 88.4 °F 70.0 °F 63% 29.86 in 10.0 mi North 3.5 mph - N/A   Scattered Clouds
12:53 PM 86.0 °F 91.5 °F 71.1 °F 61% 29.84 in 10.0 mi NNW 4.6 mph - N/A   Scattered Clouds
1:53 PM 87.1 °F 92.0 °F 70.0 °F 57% 29.82 in 10.0 mi Variable 3.5 mph - N/A   Scattered Clouds
2:53 PM 88.0 °F 90.3 °F 66.0 °F 48% 29.79 in 10.0 mi Variable 3.5 mph - N/A   Scattered Clouds
3:53 PM 89.1 °F 92.1 °F 66.9 °F 48% 29.78 in 10.0 mi NW 3.5 mph - N/A   Partly Cloudy
4:53 PM 89.1 °F 92.1 °F 66.9 °F 48% 29.78 in 10.0 mi West 4.6 mph - N/A   Scattered Clouds
5:53 PM 87.1 °F 89.2 °F 66.0 °F 49% 29.78 in 10.0 mi Variable 4.6 mph - N/A   Scattered Clouds
6:53 PM 82.9 °F 84.0 °F 63.0 °F 51% 29.79 in 10.0 mi WSW 6.9 mph - N/A   Scattered Clouds
7:53 PM 81.0 °F 83.0 °F 66.0 °F 60% 29.81 in 10.0 mi WSW 4.6 mph - N/A   Scattered Clouds
8:53 PM 79.0 °F - 66.0 °F 64% 29.83 in 10.0 mi NNW 4.6 mph - N/A   Scattered Clouds
9:53 PM 79.0 °F - 63.0 °F 58% 29.83 in 10.0 mi North 5.8 mph - N/A   Partly Cloudy
10:53 PM 78.1 °F - 66.0 °F 66% 29.84 in 10.0 mi Calm Calm - N/A   Partly Cloudy
11:53 PM 75.0 °F - 66.0 °F 73% 29.84 in 10.0 mi North 6.9 mph - N/A   Partly Cloudy